LFOBLIBD

Guest
Details From LFOB - Beauvais-Tille
To LIBD - Bari Palese Macchie
Flight Number -
Tags decoded
Created
Modified
Stats Distance 793 nm / 1,468 km
Max Altitude 0 ft / 0 m
Waypoints 2
Social Downloads 18
Likes 0
Share

Download

Looking for another format? Having issues loading an existing format? Contact us
Advertisement - Login to hide

Notes

Requested: LFOB 42 LIBD Unmatched points: 42

Route

LFOB LIBD

ID Type Via Altitude (ft/m) Position (lat/lon) Dist (leg/tot) Name
O LFOB APT - 0 / 0 49.45600 / 2.11891 - / 0 nm Beauvais-Tille
O LIBD APT - 0 / 0 41.13787 / 16.75832 792 / 792 nm Bari Palese Macchie

Altitude Profile

Advertisement - Login to hide

Weather


0- 5 10 15 20 25 30 35+ Temperature / °C

Clouds and Precipitation
Forecast for 2022-05-26 12:00 UTC. Updated 5 hours ago

Ground ~20,000 ft ~40,000 ft Winds

LFOB

Details ICAO LFOB (BVA)
Name Beauvais Tille
Region France
Timezone Europe/Paris (UTC+2.0)
Stats Elevation 359 ft / 109 m (AMSL)
Location 49.456000° 2.118930°
Runways 2
Magnetic Variation 1.078° E

METAR

LFOB 261430Z AUTO 26012KT 9999 OVC027 17/11 Q1025 NOSIG

Decode

TAF

TAF LFOB 261100Z 2612/2712 26012KT 9999 SCT020 BECMG 2701/2703 BKN013 TEMPO 2703/2709 4000 RA BKN007 OVC015 FM270900 32012KT 9999 BKN020

Decode

Departure Runways

ID Width Length Bearing (true/mag) Surface Threshold Overrun Markings Lighting
04 59 ft / 18 m 2,320 ft / 707 m 41.41° / 40.33° ASPHALT 0 ft / 0 m 0 ft / 0 m VISUAL
12 148 ft / 45 m 7,952 ft / 2,424 m 123.73° / 122.66° ASPHALT 144 ft / 44 m 0 ft / 0 m PREC-APP CENTERLINE EDGE THRESHOLD ALSF-II TDZ
22 59 ft / 18 m 2,320 ft / 707 m 221.41° / 220.34° ASPHALT 0 ft / 0 m 0 ft / 0 m VISUAL
30 148 ft / 45 m 7,952 ft / 2,424 m 303.75° / 302.68° ASPHALT 0 ft / 0 m 0 ft / 0 m PREC-APP CENTERLINE EDGE THRESHOLD ALSF-I

LIBD

Details ICAO LIBD (BRI)
Name Bari-Palese "Karol Wojtyla"
Region Italy
Timezone Europe/Rome (UTC+2.0)
Stats Elevation 173 ft / 53 m (AMSL)
Location 41.137900° 16.758300°
Runways 1
Magnetic Variation 4.192° E

METAR

LIBD 261420Z 08004KT 020V120 CAVOK 26/16 Q1018

Decode

TAF

TAF LIBD 261100Z 2612/2712 06010KT CAVOK BECMG 2616/2618 VRB05KT TEMPO 2700/2704 4000 BR BECMG 2708/2710 06010KT

Decode

Destination Runways

ID Width Length Bearing (true/mag) Surface Threshold Overrun Markings Lighting
07 148 ft / 45 m 9,260 ft / 2,823 m 69.40° / 65.20° ASPHALT 1,240 ft / 378 m 0 ft / 0 m PREC-APP CENTERLINE EDGE THRESHOLD ALSF-II REIL-OMNI
25 148 ft / 45 m 9,260 ft / 2,823 m 249.42° / 245.22° ASPHALT 0 ft / 0 m 0 ft / 0 m PREC-APP CENTERLINE EDGE THRESHOLD SALS REIL-OMNI

Approach Navaids

Runway Type Ident Frequency Range Bearing (true/mag) Slope Elevation
07 DME BAP 111.35 MHz 18 nm / 33 km - - 183 ft / 56 m (AMSL)
07 OM OM - - 69.25° / 65.06 ° - 177 ft / 54 m (AMSL)
07 LOC-ILS BAP 111.35 MHz 18 nm / 33 km 69.39° / 65.20 ° - 175 ft / 53 m (AMSL)
07 GS BAP 111.35 MHz 10 nm / 19 km 69.39° / 65.20 ° 3.32° 175 ft / 53 m (AMSL)

Popular Alternatives